Zurück zum Katalog

ONEWEB-0304

AktivKommunikationPO
NORAD 49092·PAYLOAD·🇬🇧 United Kingdom

Gestartet Aug 21, 2021 von Baikonur Cosmodrome

Loading…

Nächste Überflüge (nächste 24 Stunden)

TLE

AktuellSource: CelesTrak SupGP

Epoche: Sep 14, 2026, 13:39 UTC

1 49092C 21075T   26257.56891620  .00002174  00000+0  56057-2 0  2573
2 49092  87.9208 348.1195 0001838 106.9411   5.4934 13.17648645    14

Verfolge ONEWEB-0304 in Echtzeit mit AllMySat

Download on the App Store